TimePST,TemperatureF,Dew PointF,Humidity,Sea Level PressureIn,VisibilityMPH,Wind Direction,Wind SpeedMPH,Gust SpeedMPH,PrecipitationIn,Events,Conditions,WindDirDegrees,DateUTC
12:53 AM,46.9,46.9,100,30.27,10.0,Calm,Calm,-,N/A,,Partly Cloudy,0,2013-02-03 08:53:00
1:53 AM,48.9,48.9,100,30.27,10.0,Calm,Calm,-,N/A,,Partly Cloudy,0,2013-02-03 09:53:00
2:37 AM,46.4,46.4,100,30.27,10.0,Calm,Calm,-,N/A,,Mostly Cloudy,0,2013-02-03 10:37:00
2:53 AM,44.1,44.1,100,30.27,10.0,ENE,4.6,-,N/A,,Scattered Clouds,60,2013-02-03 10:53:00
3:41 AM,44.6,44.6,100,30.26,10.0,NNE,3.5,-,N/A,,Mostly Cloudy,20,2013-02-03 11:41:00
3:53 AM,45.0,45.0,100,30.26,10.0,NNE,4.6,-,N/A,,Mostly Cloudy,30,2013-02-03 11:53:00
4:42 AM,46.4,46.4,100,30.25,10.0,Calm,Calm,-,N/A,,Mostly Cloudy,0,2013-02-03 12:42:00
4:53 AM,48.0,48.0,100,30.25,10.0,Calm,Calm,-,N/A,,Mostly Cloudy,0,2013-02-03 12:53:00
5:53 AM,48.9,46.9,93,30.25,10.0,WNW,6.9,-,N/A,,Mostly Cloudy,290,2013-02-03 13:53:00
6:40 AM,44.6,44.6,100,30.26,10.0,NNE,3.5,-,N/A,,Mostly Cloudy,30,2013-02-03 14:40:00
6:53 AM,44.1,44.1,100,30.26,10.0,ENE,3.5,-,N/A,,Mostly Cloudy,60,2013-02-03 14:53:00
7:53 AM,45.0,45.0,100,30.26,10.0,Calm,Calm,-,N/A,,Mostly Cloudy,0,2013-02-03 15:53:00
8:53 AM,50.0,50.0,100,30.27,10.0,East,3.5,-,N/A,,Mostly Cloudy,100,2013-02-03 16:53:00
9:53 AM,54.0,46.0,75,30.27,10.0,Calm,Calm,-,N/A,,Scattered Clouds,0,2013-02-03 17:53:00
10:50 AM,55.4,44.6,67,30.28,10.0,Calm,Calm,-,N/A,,Mostly Cloudy,0,2013-02-03 18:50:00
10:53 AM,55.9,46.0,69,30.27,10.0,Variable,3.5,-,N/A,,Mostly Cloudy,0,2013-02-03 18:53:00
11:04 AM,55.4,44.6,67,30.27,10.0,Calm,Calm,-,N/A,,Scattered Clouds,0,2013-02-03 19:04:00
11:53 AM,55.9,44.1,64,30.24,10.0,South,5.8,-,N/A,,Scattered Clouds,190,2013-02-03 19:53:00
12:53 PM,55.9,43.0,62,30.22,10.0,SW,4.6,-,N/A,,Scattered Clouds,220,2013-02-03 20:53:00
1:53 PM,59.0,45.0,60,30.20,10.0,NW,6.9,-,N/A,,Partly Cloudy,310,2013-02-03 21:53:00
2:53 PM,57.9,45.0,62,30.18,10.0,West,8.1,-,N/A,,Clear,280,2013-02-03 22:53:00
3:53 PM,57.0,48.9,74,30.17,10.0,WSW,6.9,-,N/A,,Partly Cloudy,250,2013-02-03 23:53:00
4:53 PM,57.0,51.1,81,30.17,10.0,West,9.2,-,N/A,,Partly Cloudy,270,2013-02-04 00:53:00
5:53 PM,55.0,52.0,89,30.17,10.0,West,10.4,-,N/A,,Partly Cloudy,270,2013-02-04 01:53:00
6:53 PM,54.0,52.0,93,30.18,10.0,WSW,5.8,-,N/A,,Clear,250,2013-02-04 02:53:00
7:53 PM,52.0,51.1,97,30.18,10.0,Calm,Calm,-,N/A,,Clear,0,2013-02-04 03:53:00
8:53 PM,52.0,52.0,100,30.18,10.0,South,3.5,-,N/A,,Partly Cloudy,180,2013-02-04 04:53:00
9:53 PM,46.9,46.9,100,30.18,10.0,Calm,Calm,-,N/A,,Partly Cloudy,0,2013-02-04 05:53:00
10:53 PM,46.9,46.9,100,30.19,10.0,Calm,Calm,-,N/A,,Scattered Clouds,0,2013-02-04 06:53:00
11:53 PM,46.9,46.9,100,30.19,7.0,Calm,Calm,-,N/A,,Partly Cloudy,0,2013-02-04 07:53:00